Vertical_Velocity
7 2 2 -1 2 3 2 -2 -0 -0 1 1 1 -1 -1 -0 -1 -2 -1 -1 -1 -1 -3 -2 -2 -3 -1 -4 0 0 2 0 -0 -0 0 -1 -0 -1 -1 -1 1 -2 -0
-2 10 1 2 -1 1 2 0 0 -0 -0 0 0 1 -2 -1 1 -1 -0 4 6 6 1 1 1 -3 -1 -1 -1 -1 0 0 -0 -0 0 1 -0 -2 -0 0 -3 -1 0
-0 10 -4 0 2 -1 1 2 -1 0 0 -1 1 1 1 -1 -1 2 2 6 -1 1 0 -1 -0 -2 -2 -1 0 -0 -1 -1 -2 -3 -6 1 -3 -1 -1 2 1 2 2
-2 3 -4 -2 1 -0 -1 0 1 -0 1 -2 -0 -0 1 -1 0 0 -1 2 -1 1 0 -0 -1 -0 -1 -0 -1 -1 -1 -2 -1 -1 -0 9 -6 1 7 3 5 6 1
-1 -2 8 -6 2 3 -0 -0 -1 2 0 1 -1 6 3 1 -1 -0 -2 -1 0 0 1 1 1 0 -1 -0 -1 -0 1 -1 -2 3 0 6 -7 5 1 1 3 0 -2
-4 8 8 -5 -1 3 0 -3 2 2 3 5 7 6 4 1 1 1 0 -2 0 1 -0 1 -0 1 -0 1 -1 0 -1 -1 -4 10 -2 -3 -6 -1 1 -1 -2 -1 -1
4 -10 5 -3 -5 1 3 -3 1 5 4 4 3 0 -3 1 1 -0 -0 1 -0 0 -1 0 0 -0 1 -0 1 -0 -0 -0 17 -0 1 5 3 3 -6 -3 -3 -3 -4
-3 -2 12 -1 -3 -0 3 6 -1 6 3 3 4 -4 1 3 2 1 2 1 0 0 -1 -1 1 -0 -0 0 0 -3 -1 -2 3 3 4 1 0 -1 -1 -1 -2 -1 -2
-5 5 2 0 -1 -2 7 7 1 4 4 1 1 -1 -2 1 1 1 0 0 1 0 0 -2 0 1 -0 -1 -1 -1 -1 7 2 0 2 -2 -1 -2 0 -1 -1 -1 0
-3 -0 3 8 -0 -1 -0 8 8 -0 6 3 -0 0 -1 -1 0 0 -0 0 1 1 1 -3 0 -1 -0 1 0 0 -2 2 -1 -0 -2 -1 1 -4 0 0 -1 0 1
-2 -0 -9 -4 14 8 -0 4 7 5 1 1 -0 -1 3 1 0 1 2 1 -0 3 1 -1 -0 -0 -3 2 1 2 0 5 -2 -0 -3 1 -2 -1 -1 -1 0 -1 1
-2 -6 1 -7 16 50 -5 5 8 6 4 1 -1 -2 0 0 1 4 2 1 -0 1 2 -1 -0 2 0 3 0 -1 -2 -7 -3 -4 -3 -1 -1 -3 -1 -0 1 0 1
-3 1 -5 -6 -7 3 31 14 5 4 3 7 5 -0 -1 -2 1 2 1 1 1 5 -1 1 -2 -2 1 -3 -2 0 9 8 19 -4 -2 0 -2 -2 -3 -1 -1 -1 -0
-5 1 -0 10 -9 7 68 0 1 1 3 4 1 -3 4 4 -2 2 0 -1 1 3 1 -0 -3 4 1 0 -0 1 -5 3 1 -3 -0 -1 0 0 -1 1 -1 -1 -0
-6 2 2 -0 -14 14 -17 28 -9 6 2 4 -6 -2 -2 -0 -1 2 2 -0 1 -4 3 -0 2 -2 -3 1 2 0 3 -2 0 -2 -3 0 -1 0 1 0 -0 -1 -2
0 -2 -4 -3 -4 -27 23 49 33 12 4 31 -21 -0 -1 2 3 0 3 -1 6 6 -1 -1 0 1 -1 -1 3 -0 2 -1 2 -1 -3 -2 -2 -1 -1 -2 -2 -2 1
-2 1 4 3 16 -9 -30 -45 10 36 -8 20 -14 -1 -1 1 2 3 3 1 3 -4 1 4 3 0 1 1 -1 -0 3 2 2 0 -1 -2 -0 1 0 -2 -2 -4 -3
-1 1 -1 -8 11 7 5 18 -19 6 24 15 -5 -3 -3 1 -1 1 3 -1 1 4 1 1 1 3 2 -0 1 2 1 2 2 2 1 -0 -2 -3 -1 -2 -3 -2 -1
-5 2 3 -0 -7 -5 -28 -41 0 32 -4 41 8 -5 -7 -2 -3 1 -1 4 -2 4 -0 1 0 2 -1 -1 -3 -1 1 2 2 2 1 2 1 0 -2 2 1 0 2
-1 0 -0 1 4 18 -28 -21 3 -5 -2 6 11 4 -1 -1 -1 -1 4 4 1 0 1 -0 2 3 2 1 -1 -0 2 2 -0 1 -1 1 3 2 1 0 1 0 -1
-2 1 -4 0 -1 17 17 -26 1 -10 -6 26 6 6 0 0 1 -2 1 3 3 2 -1 0 -1 0 1 3 -2 2 -0 1 -1 -0 -1 -1 -0 1 1 -0 1 -1 -1
13 4 13 -3 -1 -6 12 -6 11 -2 -5 -24 8 4 -0 1 1 -2 0 1 -0 1 3 0 -1 -1 2 -1 -4 2 -1 1 0 1 1 2 -1 -1 0 3 6 2 -2
2 -11 3 7 19 2 5 -8 8 -9 -9 -30 -10 0 2 -0 1 3 2 2 -1 1 2 1 -1 -2 -5 1 1 -0 -2 2 0 -0 -1 -2 1 -3 -4 -6 0 -3 -1
-3 -7 16 3 4 2 5 -4 -2 0 4 7 -3 -7 1 -4 3 2 2 2 1 -0 -4 -2 1 2 2 -1 -1 -3 -1 1 1 -1 0 -2 -1 -0 1 -2 1 1 -0
2 -5 4 -3 -12 1 -5 5 7 0 7 3 -3 1 -4 4 2 3 2 1 -1 3 3 2 0 -0 -0 4 2 -0 1 3 -0 -0 -0 1 1 -2 -1 1 0 -2 -3
6 6 -2 1 2 1 5 0 -2 9 -4 -0 8 10 -6 1 3 2 -1 3 0 2 1 0 2 -0 2 2 5 3 1 1 0 2 1 -2 -1 -1 3 -1 7 0 -3
Height
1486 1483 1481 1482 1484 1487 1488 1491 1494 1496 1499 1501 1502 1504 1507 1509 1511 1513 1515 1517 1519 1520 1521 1523 1524 1525 1526 1528 1530 1531 1532 1533 1533 1534 1535 1535 1536 1537 1538 1538 1540 1540 1540
1486 1485 1481 1483 1485 1488 1490 1492 1494 1497 1499 1501 1503 1505 1507 1510 1512 1514 1516 1518 1520 1522 1523 1525 1526 1527 1527 1529 1530 1532 1533 1534 1535 1536 1537 1538 1538 1539 1540 1540 1541 1542 1543
1486 1486 1482 1484 1486 1488 1491 1493 1495 1497 1499 1502 1504 1506 1507 1510 1513 1515 1517 1519 1520 1522 1524 1525 1527 1528 1529 1530 1532 1533 1535 1537 1538 1539 1540 1541 1541 1542 1542 1542 1543 1543 1544
1485 1486 1483 1484 1486 1489 1491 1494 1496 1497 1499 1502 1504 1506 1508 1510 1513 1515 1517 1519 1521 1523 1524 1525 1527 1528 1529 1531 1533 1534 1536 1538 1540 1541 1543 1545 1544 1544 1544 1544 1544 1545 1545
1485 1485 1485 1484 1486 1489 1491 1494 1497 1498 1500 1502 1504 1507 1509 1510 1512 1515 1517 1519 1521 1522 1524 1525 1527 1528 1530 1532 1534 1535 1537 1539 1542 1543 1545 1547 1546 1546 1546 1546 1546 1546 1547
1484 1485 1485 1483 1486 1488 1490 1493 1496 1498 1500 1502 1505 1507 1509 1510 1512 1514 1516 1518 1520 1522 1523 1525 1526 1528 1530 1532 1534 1537 1538 1541 1542 1546 1545 1545 1546 1547 1546 1546 1547 1547 1548
1482 1482 1483 1481 1484 1487 1489 1491 1494 1497 1500 1502 1504 1506 1508 1510 1512 1514 1516 1518 1520 1521 1523 1524 1526 1528 1530 1532 1535 1537 1539 1542 1545 1545 1545 1545 1546 1547 1547 1547 1548 1548 1549
1479 1479 1481 1479 1482 1485 1487 1490 1493 1496 1499 1502 1504 1506 1509 1510 1511 1513 1515 1517 1519 1521 1522 1524 1526 1527 1530 1532 1535 1538 1540 1542 1543 1545 1545 1545 1546 1547 1548 1548 1548 1549 1549
1475 1477 1478 1477 1479 1483 1485 1488 1492 1495 1498 1500 1503 1505 1507 1509 1510 1512 1514 1516 1519 1520 1522 1524 1526 1527 1530 1532 1535 1538 1541 1543 1544 1545 1546 1546 1547 1547 1548 1548 1549 1549 1549
1472 1472 1474 1476 1477 1479 1482 1486 1490 1493 1496 1499 1502 1503 1505 1508 1509 1511 1513 1516 1518 1520 1522 1523 1526 1527 1530 1533 1535 1538 1543 1546 1544 1546 1547 1548 1547 1547 1547 1548 1549 1550 1551
1469 1468 1468 1470 1473 1477 1478 1482 1487 1491 1493 1497 1499 1502 1504 1506 1508 1509 1512 1514 1517 1520 1523 1524 1527 1528 1531 1534 1537 1540 1544 1545 1546 1547 1548 1549 1549 1549 1549 1549 1550 1551 1552
1465 1465 1465 1467 1466 1475 1474 1479 1482 1485 1489 1493 1496 1500 1503 1505 1507 1510 1510 1513 1516 1520 1523 1525 1528 1531 1533 1536 1538 1542 1545 1547 1548 1548 1549 1549 1550 1550 1550 1551 1552 1553 1555
1461 1461 1462 1463 1461 1460 1470 1475 1477 1480 1484 1489 1493 1497 1502 1505 1506 1508 1509 1512 1516 1519 1522 1525 1528 1532 1536 1538 1540 1544 1547 1549 1550 1547 1549 1550 1551 1551 1551 1552 1553 1555 1556
1456 1458 1458 1460 1459 1460 1458 1470 1473 1477 1481 1485 1491 1495 1501 1503 1505 1507 1509 1511 1515 1519 1522 1524 1528 1534 1537 1539 1541 1544 1546 1548 1549 1548 1549 1550 1552 1553 1552 1553 1555 1555 1557
1453 1453 1453 1453 1454 1445 1464 1464 1471 1475 1478 1482 1487 1492 1497 1500 1504 1507 1510 1512 1514 1517 1522 1525 1528 1531 1535 1539 1542 1544 1546 1547 1549 1548 1549 1551 1552 1553 1554 1554 1555 1556 1557
1449 1449 1446 1449 1451 1455 1451 1451 1463 1470 1475 1477 1483 1488 1494 1498 1502 1505 1508 1512 1515 1518 1521 1524 1527 1530 1534 1538 1541 1543 1545 1547 1548 1548 1548 1550 1552 1553 1554 1555 1556 1557 1557
1446 1445 1444 1439 1439 1441 1458 1459 1454 1464 1471 1467 1475 1483 1491 1495 1500 1503 1507 1510 1513 1515 1519 1523 1526 1529 1532 1536 1540 1543 1544 1546 1547 1549 1549 1550 1552 1553 1553 1554 1555 1556 1556
1442 1443 1444 1443 1439 1443 1450 1447 1450 1459 1465 1461 1470 1478 1486 1492 1497 1501 1504 1507 1512 1514 1517 1520 1523 1526 1531 1533 1538 1541 1543 1544 1546 1548 1549 1550 1551 1553 1554 1554 1555 1556 1556
1438 1440 1441 1446 1442 1441 1442 1454 1457 1446 1458 1464 1464 1471 1481 1488 1493 1498 1501 1504 1508 1512 1514 1518 1522 1524 1528 1530 1535 1539 1541 1544 1545 1547 1549 1550 1551 1552 1553 1554 1555 1556 1557
1434 1436 1435 1435 1437 1429 1433 1459 1455 1450 1456 1463 1459 1467 1476 1484 1489 1495 1499 1501 1504 1509 1512 1516 1520 1524 1526 1529 1533 1538 1541 1543 1545 1548 1549 1550 1551 1552 1553 1554 1554 1555 1556
1432 1433 1434 1435 1437 1435 1443 1449 1453 1450 1455 1444 1462 1467 1475 1481 1487 1492 1497 1499 1502 1506 1509 1514 1519 1521 1525 1528 1530 1536 1540 1543 1545 1547 1548 1550 1550 1552 1553 1553 1553 1554 1555
1427 1430 1431 1431 1436 1438 1444 1445 1451 1447 1450 1452 1462 1467 1474 1478 1485 1489 1494 1497 1501 1505 1508 1511 1516 1520 1524 1526 1529 1534 1539 1543 1543 1545 1546 1548 1549 1551 1552 1553 1553 1552 1554
1427 1426 1431 1435 1434 1439 1442 1442 1445 1440 1453 1456 1463 1469 1474 1477 1484 1488 1492 1495 1499 1504 1506 1510 1514 1518 1521 1526 1529 1533 1536 1537 1540 1542 1544 1546 1547 1548 1551 1551 1552 1551 1553
1426 1429 1427 1428 1430 1431 1435 1437 1440 1448 1447 1451 1458 1468 1472 1479 1483 1487 1489 1492 1497 1500 1504 1509 1513 1517 1521 1523 1525 1528 1531 1532 1536 1539 1541 1542 1543 1545 1547 1548 1549 1548 1550
1429 1427 1426 1428 1432 1437 1439 1440 1443 1450 1449 1458 1466 1471 1477 1479 1481 1485 1487 1491 1496 1500 1503 1507 1511 1515 1519 1522 1524 1527 1529 1530 1532 1533 1534 1537 1540 1541 1544 1545 1546 1545 1548
1428 1427 1428 1430 1433 1436 1439 1438 1442 1447 1454 1461 1463 1464 1469 1475 1479 1481 1486 1489 1493 1498 1501 1505 1509 1513 1518 1520 1523 1525 1527 1529 1530 1532 1534 1535 1538 1539 1542 1543 1543 1542 1544